GW1480 Weather Reports


Display with metric or nautical units.
time (UTC)temp
F
wind
direction
speed
MPH
gust
MPH
rain 1hr
in
rain 24hr
in
rain mn
in
humidity
%
barometer
mb
20260905081854 69 236 0.0 0.0 0.00 0.00 0.00 99 1013.2
20260905081438 69 234 0.0 0.0 0.00 0.00 0.00 99 1013.2
20260905081020 69 234 0.0 0.0 0.00 0.00 0.00 99 1012.8
20260905080131 69 237 0.0 0.0 0.00 0.00 0.00 99 1013.2
20260905075714 69 238 0.0 0.0 0.00 0.00 0.00 99 1013.2
20260905074825 69 234 0.0 0.0 0.00 0.00 0.00 99 1012.8
20260905073934 69 235 0.0 0.0 0.00 0.00 0.00 99 1013.2
20260905073032 69 235 0.0 0.0 0.00 0.00 0.00 99 1013.2
20260905072618 69 235 0.0 0.0 0.00 0.00 0.00 99 1013.2
20260905071301 69 235 0.0 0.0 0.00 0.00 0.00 99 1013.5
20260905070830 69 236 0.0 0.0 0.00 0.00 0.00 99 1013.5
20260905070414 69 231 0.0 0.0 0.00 0.00 0.00 99 1013.8
20260905070000 69 229 0.0 0.0 0.00 0.00 0.00 99 1013.8
20260905065544 69 232 0.0 0.0 0.00 0.00 0.00 99 1013.8
20260905065129 69 223 0.0 0.0 0.00 0.00 0.00 99 1014.2
20260905064713 69 229 0.0 0.0 0.00 0.00 0.00 99 1014.5
20260905064257 69 222 0.0 0.0 0.00 0.00 0.00 99 1014.2
20260905063841 69 229 0.0 0.0 0.00 0.00 0.00 99 1014.2
20260905063426 69 234 0.0 0.0 0.00 0.00 0.00 99 1014.5
20260905062509 70 236 0.0 0.0 0.00 0.00 0.00 99 1014.5
20260905062037 70 238 0.0 0.0 0.00 0.00 0.00 99 1014.5
20260905061621 70 238 0.0 0.0 0.00 0.00 0.00 99 1014.5
20260905061204 70 234 0.0 0.0 0.00 0.00 0.00 99 1014.5
20260905060746 70 238 0.0 0.0 0.00 0.00 0.00 99 1014.9
20260905060329 70 240 0.0 0.0 0.00 0.00 0.00 99 1014.5
20260905055912 70 246 0.0 0.0 0.00 0.00 0.00 99 1014.5
20260905055456 70 237 0.0 0.0 0.00 0.00 0.00 99 1014.9
20260905055041 70 232 0.0 0.0 0.00 0.00 0.00 99 1014.9
20260905054625 70 233 0.0 0.0 0.00 0.00 0.00 99 1014.5
20260905054210 70 226 0.0 0.0 0.00 0.00 0.00 99 1014.9
20260905053753 70 235 0.0 0.0 0.00 0.00 0.00 99 1014.9
20260905053323 69 205 0.0 0.0 0.00 0.00 0.00 99 1014.9
20260905052851 69 194 0.0 0.0 0.00 0.00 0.00 99 1014.9
20260905052436 69 235 0.0 0.0 0.00 0.00 0.00 99 1015.2
20260905052020 69 235 0.0 0.0 0.00 0.00 0.00 99 1015.2
20260905051549 69 229 0.0 0.0 0.00 0.00 0.00 99 1015.2
20260905051120 69 226 0.0 0.0 0.00 0.00 0.00 99 1015.2
20260905050219 69 235 0.0 0.0 0.00 0.00 0.00 99 1015.5
20260905045802 69 235 0.0 0.0 0.00 0.00 0.00 99 1015.5
20260905045346 70 235 0.0 0.0 0.00 0.00 0.00 99 1015.5
20260905044915 70 236 0.0 0.0 0.00 0.00 0.00 99 1015.5
20260905044444 70 234 0.0 0.0 0.00 0.00 0.00 99 1015.2
20260905044028 70 234 0.0 0.0 0.00 0.00 0.00 99 1015.2
20260905043614 70 237 0.0 0.0 0.00 0.00 0.00 99 1015.2
20260905043158 70 237 0.0 0.0 0.00 0.00 0.00 99 1015.5
20260905042743 70 235 0.0 0.0 0.00 0.00 0.00 99 1015.5
20260905042257 70 236 0.0 0.0 0.00 0.00 0.00 99 1015.2
20260905041840 70 237 0.0 0.0 0.00 0.00 0.00 99 1015.5
20260905041409 70 237 0.0 0.0 0.00 0.00 0.00 99 1015.2
20260905040950 70 234 0.0 0.0 0.00 0.00 0.00 99 1015.2
20260905040534 70 233 0.0 0.0 0.00 0.00 0.00 99 1015.2
20260905040103 70 234 0.0 0.0 0.00 0.00 0.00 99 1015.2
20260905035632 70 232 0.0 0.0 0.00 0.00 0.06 99 1015.2
20260905035216 70 231 0.0 0.0 0.00 0.00 0.06 99 1015.2
20260905034800 70 219 0.0 0.0 0.00 0.00 0.06 99 1015.2
20260905034344 70 210 0.0 0.0 0.00 0.00 0.06 99 1015.2
20260905033927 70 228 0.0 0.0 0.00 0.00 0.06 99 1015.2
20260905033510 70 232 0.0 0.0 0.00 0.00 0.06 99 1014.9
20260905033051 70 237 0.0 0.0 0.00 0.00 0.06 99 1015.2
20260905032635 70 200 0.0 0.0 0.00 0.00 0.06 99 1014.9
20260905032204 70 236 0.0 0.0 0.00 0.00 0.06 99 1015.2
20260905031730 70 238 0.0 0.0 0.00 0.00 0.06 99 1015.2
20260905031312 70 235 0.0 0.0 0.00 0.00 0.06 99 1015.2
20260905030842 70 235 0.0 0.0 0.00 0.00 0.06 99 1015.2
20260905025938 71 236 0.0 0.0 0.00 0.00 0.06 99 1014.9
20260905025522 71 236 0.0 0.0 0.00 0.00 0.06 99 1015.2
20260905025106 71 235 0.0 0.0 0.00 0.00 0.06 99 1015.2
20260905024650 71 235 0.0 0.0 0.00 0.00 0.06 99 1015.2
20260905023747 71 236 0.0 0.0 0.00 0.00 0.06 99 1015.2
20260905022411 71 236 0.0 0.0 0.00 0.00 0.06 99 1015.2
20260905021938 71 237 0.0 0.0 0.00 0.00 0.06 99 1015.2
20260905021521 72 223 0.0 0.0 0.00 0.00 0.06 99 1015.2
20260905021104 72 235 0.0 0.0 0.00 0.00 0.06 99 1015.2
20260905020649 72 235 0.0 0.0 0.00 0.00 0.06 99 1015.2
20260905020234 72 235 0.0 0.0 0.00 0.00 0.06 99 1015.2
20260905015818 72 235 0.0 0.0 0.00 0.00 0.06 99 1015.2
20260905014931 72 235 0.0 0.0 0.00 0.00 0.06 99 1015.2
20260905014459 72 236 0.0 0.0 0.00 0.00 0.06 99 1014.9
20260905014044 72 231 0.0 0.0 0.00 0.00 0.06 99 1015.2
20260905013629 72 235 0.0 0.0 0.00 0.00 0.06 99 1015.2
20260905013212 73 235 0.0 0.0 0.00 0.00 0.06 99 1014.9
20260905012741 73 236 0.0 0.0 0.00 0.00 0.06 99 1015.2
20260905012323 73 236 0.0 0.0 0.00 0.00 0.06 99 1014.9
20260905011907 73 235 0.0 0.0 0.00 0.00 0.06 99 1014.5
20260905011449 73 236 0.0 0.0 0.00 0.00 0.06 99 1014.5
20260905010544 73 235 0.0 0.0 0.00 0.00 0.06 99 1014.9
20260905010128 73 235 0.0 0.0 0.00 0.00 0.06 99 1014.9
20260905005711 74 236 0.0 0.0 0.00 0.00 0.06 99 1014.5
20260905005255 74 242 0.0 0.0 0.00 0.00 0.06 99 1014.5
20260905004824 74 220 0.0 0.0 0.00 0.00 0.06 99 1014.2
20260905004407 74 232 0.0 0.0 0.00 0.00 0.06 99 1014.2
20260905003950 74 235 0.0 0.0 0.00 0.00 0.06 99 1014.2
20260905003104 75 241 0.0 0.0 0.00 0.00 0.06 99 1013.5
20260905002648 75 242 0.0 0.0 0.00 0.00 0.06 99 1013.5
20260905002231 75 246 0.0 0.0 0.00 0.00 0.06 99 1013.2
20260905001817 75 237 0.0 0.0 0.00 0.00 0.06 99 1012.8
20260905001400 75 153 0.0 0.0 0.00 0.00 0.06 99 1012.8
20260905000943 76 233 0.0 0.0 0.00 0.00 0.06 99 1012.8
20260905000525 76 212 0.0 0.0 0.00 0.00 0.06 99 1013.2
20260905000105 76 224 0.0 0.0 0.00 0.00 0.06 99 1013.2
20260904235217 76 204 0.0 0.0 0.00 0.00 0.06 99 1012.8
20260904234801 76 181 0.0 0.0 0.00 0.00 0.06 99 1013.2
20260904234331 76 232 0.0 0.0 0.00 0.00 0.06 99 1013.5
20260904233914 76 76 0.0 0.0 0.00 0.00 0.06 99 1013.5
20260904233443 76 196 0.0 0.0 0.00 0.00 0.06 99 1013.8
20260904233012 77 152 0.0 0.0 0.00 0.00 0.06 99 1013.5
20260904232111 77 213 0.0 0.0 0.00 0.00 0.06 99 1014.2
20260904231654 77 222 0.0 0.0 0.00 0.00 0.06 99 1014.2
20260904231223 78 224 0.0 0.0 0.00 0.00 0.06 99 1014.2
20260904230752 78 211 0.0 0.0 0.00 0.00 0.06 99 1014.2
20260904225849 80 236 0.0 0.0 0.00 0.00 0.06 99 1014.5
20260904225432 80 237 0.0 0.0 0.00 0.00 0.06 99 1014.5
20260904225016 81 238 0.0 0.0 0.00 0.00 0.06 98 1014.5
20260904224529 81 254 0.0 0.0 0.00 0.00 0.06 98 1014.5
20260904223153 82 248 0.0 0.0 0.00 0.00 0.06 94 1014.9
20260904222736 81 240 0.0 0.0 0.00 0.00 0.06 94 1014.9
20260904222319 81 235 0.0 0.0 0.00 0.00 0.06 95 1014.9
20260904221902 81 227 0.0 0.0 0.00 0.00 0.06 93 1015.2
20260904220943 81 258 0.0 0.0 0.00 0.00 0.06 96 1015.5
20260904220523 81 218 0.0 0.0 0.00 0.00 0.06 97 1015.2
20260904215646 81 204 0.0 0.0 0.00 0.00 0.06 97 1015.2
20260904215229 81 238 0.0 0.0 0.00 0.00 0.06 97 1015.2
20260904214755 81 231 0.0 0.0 0.00 0.00 0.06 96 1015.2
20260904214339 80 238 0.0 2.0 0.00 0.00 0.06 96 1015.5
20260904213902 80 239 0.0 0.0 0.00 0.00 0.06 96 1015.5
20260904213446 80 210 3.0 5.0 0.00 0.00 0.06 96 1015.5
20260904213013 79 223 0.0 2.0 0.00 0.00 0.06 96 1015.5
20260904212556 79 253 0.0 0.0 0.00 0.00 0.06 98 1015.2
20260904212140 79 220 0.0 0.0 0.00 0.00 0.06 99 1015.2
20260904211708 79 225 0.0 0.0 0.00 0.00 0.06 99 1015.2
20260904211236 79 228 0.0 0.0 0.00 0.00 0.06 99 1015.2
20260904210331 79 166 0.0 0.0 0.00 0.00 0.06 99 1015.2
20260904205914 80 223 0.0 0.0 0.00 0.00 0.06 99 1015.5
20260904204554 81 230 0.0 0.0 0.00 0.00 0.06 98 1014.9
20260904204137 81 228 0.0 0.0 0.00 0.00 0.06 97 1014.9
20260904203650 81 228 0.0 0.0 0.00 0.00 0.06 96 1014.9
20260904155121 89 261 0.0 0.0 0.00 0.00 0.00 76 1016.9
20260904154702 89 261 0.0 0.0 0.00 0.00 0.00 76 1016.9
20260904154247 89 261 0.0 0.0 0.00 0.00 0.00 76 1016.9
20260904153815 89 261 0.0 0.0 0.00 0.00 0.00 76 1016.9
20260904153358 89 147 0.0 0.0 0.00 0.00 0.00 72 1016.9
20260904152941 88 285 0.0 0.0 0.00 0.00 0.00 79 1016.9
20260904152455 88 254 4.0 5.0 0.00 0.00 0.00 77 1016.9
20260904152039 88 242 0.0 0.0 0.00 0.00 0.00 81 1017.2
20260904151619 88 184 0.0 0.0 0.00 0.00 0.00 75 1016.9
20260904151201 88 217 0.0 0.0 0.00 0.00 0.00 76 1016.9
20260904150745 88 202 0.0 0.0 0.00 0.00 0.00 77 1016.9
20260904150328 87 218 0.0 0.0 0.00 0.00 0.00 80 1016.9
20260904145911 87 213 0.0 0.0 0.00 0.00 0.00 79 1016.9
20260904145438 87 216 0.0 0.0 0.00 0.00 0.00 79 1016.5
20260904144536 86 224 0.0 0.0 0.00 0.00 0.00 77 1016.9
20260904143645 86 227 0.0 0.0 0.00 0.00 0.00 80 1016.5
20260904142757 85 232 1.0 5.0 0.00 0.00 0.00 85 1016.9
20260904142342 85 212 0.0 0.0 0.00 0.00 0.00 83 1016.9
20260904141910 84 215 0.0 0.0 0.00 0.00 0.00 83 1016.9
20260904141454 84 211 0.0 0.0 0.00 0.00 0.00 85 1016.9
20260904141039 83 207 0.0 0.0 0.00 0.00 0.00 84 1016.9
20260904140624 83 197 0.0 0.0 0.00 0.00 0.00 84 1016.5
20260904140208 82 235 0.0 0.0 0.00 0.00 0.00 85 1016.5
20260904135750 82 224 0.0 0.0 0.00 0.00 0.00 89 1016.2
20260904135332 81 221 0.0 0.0 0.00 0.00 0.00 89 1016.5
20260904134914 81 217 0.0 0.0 0.00 0.00 0.00 90 1016.5
20260904134459 80 228 0.0 0.0 0.00 0.00 0.00 93 1016.5
20260904134010 80 221 0.0 0.0 0.00 0.00 0.00 92 1016.5
20260904133555 80 228 0.0 0.0 0.00 0.00 0.00 94 1016.9
20260904133138 79 227 0.0 0.0 0.00 0.00 0.00 93 1016.9
20260904132721 78 221 0.0 0.0 0.00 0.00 0.00 95 1016.9
20260904132251 78 208 0.0 0.0 0.00 0.00 0.00 95 1016.9
20260904131834 77 230 0.0 0.0 0.00 0.00 0.00 96 1016.9
20260904131403 76 131 0.0 0.0 0.00 0.00 0.00 95 1016.9
20260904130946 75 231 0.0 0.0 0.00 0.00 0.00 97 1016.9
20260904130514 75 148 0.0 0.0 0.00 0.00 0.00 98 1016.5
20260904130100 74 101 0.0 0.0 0.00 0.00 0.00 99 1016.5
20260904125628 74 210 0.0 0.0 0.00 0.00 0.00 99 1016.5
20260904125212 73 244 0.0 0.0 0.00 0.00 0.00 99 1016.9
20260904124757 73 218 0.0 0.0 0.00 0.00 0.00 99 1017.2
20260904124325 73 223 0.0 0.0 0.00 0.00 0.00 99 1017.2
20260904123854 72 163 0.0 0.0 0.00 0.00 0.00 99 1017.2
20260904123423 72 230 0.0 0.0 0.00 0.00 0.00 99 1016.9
20260904123009 72 221 0.0 0.0 0.00 0.00 0.00 99 1017.2
20260904122110 71 233 0.0 0.0 0.00 0.00 0.00 99 1016.9
20260904121655 71 236 0.0 0.0 0.00 0.00 0.00 99 1016.9
20260904121242 71 235 0.0 0.0 0.00 0.00 0.00 99 1016.9
20260904120825 71 227 0.0 0.0 0.00 0.00 0.00 99 1016.9
20260904120409 71 224 0.0 0.0 0.00 0.00 0.00 99 1016.9
20260904115952 70 230 0.0 0.0 0.00 0.00 0.00 99 1016.5
20260904115539 70 220 0.0 0.0 0.00 0.00 0.00 99 1016.9
20260904115125 70 226 0.0 0.0 0.00 0.00 0.00 99 1016.5
20260904114709 70 234 0.0 0.0 0.00 0.00 0.00 99 1016.9
20260904114253 70 234 0.0 0.0 0.00 0.00 0.00 99 1016.9
20260904113823 70 240 0.0 0.0 0.00 0.00 0.00 99 1016.9
20260904113408 70 235 0.0 0.0 0.00 0.00 0.00 99 1016.9
20260904112952 70 226 0.0 0.0 0.00 0.00 0.00 99 1016.5
20260904112537 70 230 0.0 0.0 0.00 0.00 0.00 99 1016.5
20260904112122 70 182 0.0 0.0 0.00 0.00 0.00 99 1016.5
20260904111705 70 226 0.0 0.0 0.00 0.00 0.00 99 1016.5
20260904111249 70 214 0.0 0.0 0.00 0.00 0.00 99 1016.2
20260904110834 70 238 0.0 0.0 0.00 0.00 0.00 99 1016.5
20260904110417 70 237 0.0 0.0 0.00 0.00 0.00 99 1016.5
20260904105516 70 230 0.0 0.0 0.00 0.00 0.00 99 1016.2
20260904105059 70 227 0.0 0.0 0.00 0.00 0.00 99 1016.2
20260904104628 70 224 0.0 0.0 0.00 0.00 0.00 99 1016.2
20260904104214 70 225 0.0 0.0 0.00 0.00 0.00 99 1016.2
20260904103312 70 211 0.0 0.0 0.00 0.00 0.00 99 1016.2
20260904102857 70 234 0.0 0.0 0.00 0.00 0.00 99 1016.2
20260904102426 70 234 0.0 0.0 0.00 0.00 0.00 99 1016.2
20260904102010 70 234 0.0 0.0 0.00 0.00 0.00 99 1016.2
20260904101555 70 236 0.0 0.0 0.00 0.00 0.00 99 1016.5
20260904101140 70 230 0.0 0.0 0.00 0.00 0.00 99 1016.2
20260904100725 70 222 0.0 0.0 0.00 0.00 0.00 99 1016.2
20260904100310 70 226 0.0 0.0 0.00 0.00 0.00 99 1016.2
20260904095823 70 216 0.0 0.0 0.00 0.00 0.00 99 1016.2
20260904095408 70 222 0.0 0.0 0.00 0.00 0.00 99 1016.2
20260904094951 70 212 0.0 0.0 0.00 0.00 0.00 99 1016.2
20260904094538 70 216 0.0 0.0 0.00 0.00 0.00 99 1016.2
20260904093634 70 215 0.0 0.0 0.00 0.00 0.00 99 1016.2
20260904093200 70 226 0.0 0.0 0.00 0.00 0.00 99 1016.2
20260904092728 70 223 0.0 0.0 0.00 0.00 0.00 99 1016.2
20260904091813 70 210 0.0 0.0 0.00 0.00 0.00 99 1015.9
20260904091327 70 228 0.0 0.0 0.00 0.00 0.00 99 1016.2
20260904090912 70 233 0.0 0.0 0.00 0.00 0.00 99 1015.9
20260904090457 70 229 0.0 0.0 0.00 0.00 0.00 99 1015.9
20260904090042 70 226 0.0 0.0 0.00 0.00 0.00 99 1015.5
20260904085627 70 227 0.0 0.0 0.00 0.00 0.00 99 1015.9
20260904085212 70 220 0.0 0.0 0.00 0.00 0.00 99 1015.9
20260904084325 69 220 0.0 0.0 0.00 0.00 0.00 99 1015.9
20260904083440 69 226 0.0 0.0 0.00 0.00 0.00 99 1015.5
20260904083025 69 229 0.0 0.0 0.00 0.00 0.00 99 1015.9
20260904082139 69 232 0.0 0.0 0.00 0.00 0.00 99 1015.9